Wind_Speed
27 28 26 23 24 21 18 16 21 30 32 31 27 23 25 23 22 23 26 27 27 26 27 29 33 38 37 32 31 30 27 25 25 25 25 25 26 26
26 23 22 24 24 24 19 21 20 27 31 30 29 26 22 28 27 25 26 26 27 28 33 37 37 37 34 29 27 28 28 26 25 24 23 22 23 24
25 26 23 22 20 24 23 21 25 29 33 35 34 31 31 30 29 31 32 32 33 35 36 35 35 33 30 26 27 28 28 26 25 25 24 21 21 22
27 25 22 20 24 19 18 19 23 23 30 38 38 36 35 35 34 34 36 38 38 38 38 35 31 32 29 26 30 32 28 29 23 25 25 26 24 23
24 23 22 26 16 16 19 23 26 28 31 35 40 39 38 36 38 37 38 40 38 37 35 30 29 31 28 31 32 27 30 28 25 25 26 28 26 27
20 23 25 26 18 18 26 26 25 27 31 35 38 41 40 38 36 39 40 41 41 38 34 29 30 28 31 34 30 29 33 25 28 27 27 27 28 28
18 22 26 16 18 25 29 25 24 26 30 34 39 42 45 46 44 43 44 43 40 35 33 32 31 32 34 32 31 33 23 26 27 29 28 30 29 27
20 18 18 22 25 19 17 18 22 26 31 34 38 37 41 42 44 45 46 41 38 38 34 34 32 33 33 29 29 19 22 27 32 34 34 29 26 26
10 14 19 23 19 22 25 27 29 30 32 35 38 40 39 41 40 40 42 42 39 39 37 32 32 35 30 28 20 18 24 27 31 31 27 24 25 28
13 15 19 21 23 27 32 35 37 39 41 42 42 43 43 40 40 39 41 42 42 39 35 39 34 33 28 25 17 22 27 29 29 23 26 27 29 30
16 17 20 23 26 29 33 36 40 41 39 39 40 41 44 47 47 41 39 37 38 42 36 35 34 32 28 25 23 26 29 27 23 29 25 24 22 24
17 18 20 22 24 26 28 32 36 37 37 40 39 36 34 34 35 34 41 35 36 31 35 28 30 26 24 25 22 17 23 27 23 22 19 19 20 23
19 19 21 23 25 26 24 24 26 31 34 33 33 32 31 34 35 29 24 31 36 35 35 30 22 19 21 24 24 26 27 20 19 19 19 16 19 23
20 23 23 24 24 22 21 21 26 31 30 30 31 30 31 33 34 32 26 26 29 27 30 30 22 21 21 21 25 27 19 14 15 11 14 17 21 20
20 21 22 21 19 20 22 26 27 27 27 29 30 33 35 34 33 27 27 24 24 28 23 20 17 19 20 23 25 21 18 16 8 16 16 20 21 18
19 19 18 18 19 21 25 25 25 25 27 28 31 32 31 26 29 24 26 24 27 29 25 21 16 19 21 21 17 18 15 17 18 17 19 22 13 14
18 18 17 19 22 24 25 27 27 27 28 27 29 32 30 27 25 21 25 26 30 29 20 16 17 18 16 15 16 16 15 17 18 17 21 14 9 10
17 17 17 19 22 24 26 27 27 27 27 27 28 30 29 27 24 21 15 16 15 12 12 12 14 15 14 16 15 16 15 18 18 17 13 13 8 9
16 15 17 19 22 24 25 26 28 27 27 27 26 28 28 26 24 16 23 20 12 12 10 11 13 14 15 17 13 13 14 17 13 8 9 10 9 5
15 17 18 20 23 24 24 25 26 26 26 26 25 25 26 26 25 18 21 20 12 9 10 12 15 16 15 15 14 14 13 13 8 6 9 6 4 4
17 18 19 22 23 24 24 25 24 25 25 25 24 24 25 25 23 19 12 10 10 11 13 13 13 11 13 15 15 16 15 10 7 5 7 7 2 6
19 20 22 23 22 25 25 24 25 25 23 24 23 23 23 23 23 21 9 13 11 13 13 13 13 12 12 13 15 11 6 9 13 8 4 5 5 4
21 23 24 23 25 24 23 23 23 23 22 23 22 22 22 24 21 20 12 4 15 13 14 17 16 11 12 11 9 7 6 5 5 6 6 2 2 3
Wind_Direction
246 243 241 246 244 244 237 253 271 280 280 279 280 269 268 270 270 268 267 267 272 277 288 293 302 308 308 306 310 311 314 307 311 307 299 294 292 290
251 245 240 234 236 238 259 275 258 267 277 277 280 280 266 266 275 279 278 273 276 284 289 293 299 304 307 305 305 307 316 312 313 310 305 293 290 289
247 248 233 235 231 259 287 270 259 263 276 278 278 279 275 272 271 273 276 275 275 278 282 288 293 300 300 300 296 305 309 310 311 312 309 296 290 291
253 230 241 231 261 290 288 273 271 270 273 277 280 276 274 275 276 273 271 274 276 277 280 282 287 290 292 288 298 300 299 306 301 303 301 299 296 290
231 250 241 270 273 292 292 284 278 275 275 277 278 279 278 278 279 276 270 270 272 274 273 275 277 281 283 293 296 289 293 298 298 296 292 292 291 297
252 240 258 283 265 285 303 286 281 282 278 278 280 282 285 286 283 279 274 267 268 271 266 267 269 272 282 296 290 286 295 293 297 291 291 290 292 298
248 243 277 281 295 295 298 290 286 289 288 286 285 286 286 287 286 287 281 279 271 262 261 258 258 277 287 295 290 285 286 290 290 294 296 293 291 293
243 271 272 292 300 294 290 288 294 295 291 290 293 295 293 292 292 290 285 278 263 256 255 259 268 286 289 295 292 280 282 289 292 299 300 291 285 288
272 273 280 285 290 286 285 285 281 277 277 285 289 290 296 293 296 293 285 278 267 257 253 255 276 278 283 290 282 280 279 286 290 296 294 298 284 284
263 266 263 274 282 284 285 288 290 288 286 286 287 287 286 286 286 288 290 287 278 263 243 257 270 271 279 284 273 270 280 286 294 293 296 293 290 288
262 269 277 281 283 289 294 294 293 296 298 296 296 294 288 282 276 281 284 280 267 255 254 252 261 272 279 278 271 277 281 284 283 291 296 294 293 290
274 282 285 290 296 302 302 304 306 310 310 308 308 311 316 311 299 281 274 273 261 261 258 243 258 272 278 270 272 276 294 298 293 298 295 297 300 300
292 296 302 307 307 309 311 310 311 309 308 309 311 313 313 318 316 296 290 284 253 268 268 253 268 260 260 263 279 292 306 305 307 297 297 300 303 310
296 302 307 307 312 313 309 310 313 312 308 306 306 308 314 320 315 314 291 292 275 273 269 267 264 259 253 271 283 300 310 321 316 311 318 311 314 307
296 301 305 312 312 309 315 317 318 318 317 316 315 308 302 298 309 302 296 286 282 268 255 241 237 235 253 270 287 302 313 322 315 322 317 322 318 323
297 303 311 313 313 314 315 320 327 327 325 321 322 321 313 305 304 297 297 276 268 267 243 234 234 238 253 274 283 298 312 309 320 305 313 318 319 333
308 310 313 313 316 318 320 322 327 328 330 326 328 329 325 327 310 298 287 279 257 246 227 241 245 254 258 266 278 291 308 309 318 305 312 304 321 325
304 310 313 309 311 317 320 321 325 328 328 328 329 333 331 331 329 301 307 247 227 237 236 242 242 241 248 256 267 288 296 301 307 305 306 304 294 300
301 301 299 303 308 313 316 319 322 326 325 328 330 334 334 331 330 308 291 270 242 244 248 244 239 230 247 254 279 281 288 307 295 306 337 323 292 271
297 297 302 306 307 310 313 316 317 320 324 328 327 331 336 336 333 306 280 229 235 246 253 246 239 240 240 259 280 286 298 303 281 322 355 351 84 17
298 300 303 304 303 306 310 311 314 319 322 326 326 328 334 337 335 333 263 232 238 247 249 250 254 242 248 253 260 280 295 275 272 295 357 2 349 355
293 296 299 301 301 306 306 311 314 316 321 325 327 329 330 335 336 336 338 252 252 254 263 264 225 229 233 252 277 270 268 288 257 259 301 343 351 344
294 297 300 300 304 304 309 313 313 313 321 323 325 327 331 331 332 331 348 320 253 256 261 253 216 217 242 266 277 246 289 281 253 239 224 322 323 4
Height
1536 1537 1536 1537 1539 1538 1537 1536 1539 1535 1532 1534 1535 1536 1535 1534 1532 1528 1526 1525 1524 1523 1521 1519 1518 1516 1514 1511 1509 1507 1504 1500 1496 1493 1491 1490 1489 1486
1532 1533 1530 1531 1531 1531 1532 1532 1533 1532 1526 1529 1529 1529 1529 1527 1525 1522 1520 1518 1516 1514 1513 1512 1511 1509 1506 1504 1502 1500 1498 1494 1491 1488 1485 1483 1482 1480
1522 1523 1526 1525 1528 1529 1528 1527 1526 1527 1523 1521 1521 1522 1520 1520 1519 1516 1513 1511 1509 1508 1506 1505 1504 1502 1499 1497 1495 1493 1490 1488 1485 1482 1479 1477 1476 1474
1518 1520 1521 1522 1524 1524 1522 1521 1521 1521 1520 1513 1513 1513 1512 1511 1510 1508 1506 1502 1500 1499 1497 1496 1495 1493 1491 1489 1487 1485 1483 1481 1479 1477 1474 1471 1469 1468
1513 1515 1519 1519 1517 1517 1516 1515 1515 1514 1513 1509 1503 1502 1501 1502 1500 1498 1496 1494 1492 1490 1488 1487 1486 1484 1483 1481 1479 1477 1476 1474 1472 1470 1467 1465 1463 1461
1509 1511 1513 1512 1511 1510 1509 1508 1507 1506 1504 1501 1497 1493 1492 1491 1490 1488 1486 1484 1482 1481 1479 1478 1476 1474 1474 1472 1470 1470 1468 1466 1464 1462 1460 1458 1455 1453
1504 1506 1507 1507 1506 1505 1502 1500 1500 1498 1497 1493 1488 1486 1482 1480 1479 1478 1475 1473 1472 1471 1469 1469 1468 1467 1465 1464 1463 1462 1461 1459 1456 1454 1452 1450 1448 1445
1501 1501 1501 1501 1500 1498 1496 1495 1494 1491 1488 1485 1480 1476 1472 1471 1469 1467 1464 1462 1459 1461 1459 1459 1458 1456 1457 1455 1454 1454 1453 1452 1450 1446 1443 1441 1439 1438
1496 1497 1497 1495 1493 1489 1487 1486 1485 1483 1482 1477 1472 1468 1465 1462 1460 1456 1454 1451 1448 1448 1448 1448 1449 1448 1449 1447 1446 1447 1447 1445 1442 1439 1436 1434 1432 1430
1490 1489 1488 1488 1486 1483 1480 1477 1475 1472 1469 1467 1463 1457 1454 1451 1449 1445 1442 1440 1438 1436 1436 1436 1438 1438 1440 1439 1439 1439 1439 1437 1434 1432 1429 1427 1424 1422
1483 1483 1482 1482 1479 1476 1472 1467 1462 1459 1456 1452 1448 1444 1440 1437 1436 1434 1429 1429 1427 1423 1425 1425 1427 1429 1432 1431 1432 1432 1431 1429 1427 1425 1422 1419 1416 1414
1479 1477 1476 1474 1472 1469 1464 1459 1452 1448 1442 1437 1434 1431 1428 1423 1421 1420 1419 1418 1417 1417 1418 1419 1420 1423 1423 1423 1424 1424 1424 1422 1419 1417 1415 1412 1410 1407
1471 1469 1468 1465 1463 1459 1456 1453 1449 1442 1437 1433 1428 1423 1419 1416 1411 1407 1407 1408 1406 1407 1411 1411 1411 1415 1417 1418 1417 1418 1417 1413 1411 1410 1408 1406 1404 1401
1464 1463 1460 1458 1455 1451 1449 1446 1442 1438 1433 1428 1423 1418 1413 1408 1404 1402 1399 1399 1398 1400 1402 1404 1405 1409 1412 1412 1412 1412 1411 1408 1406 1403 1402 1400 1397 1394
1457 1456 1454 1450 1448 1446 1443 1440 1435 1431 1426 1422 1416 1411 1407 1403 1398 1394 1393 1390 1390 1392 1395 1398 1400 1404 1406 1406 1407 1406 1405 1403 1401 1399 1397 1395 1391 1387
1451 1450 1446 1443 1440 1439 1436 1432 1429 1425 1421 1415 1410 1405 1399 1395 1391 1389 1387 1385 1384 1386 1389 1391 1395 1398 1400 1402 1403 1401 1401 1399 1397 1395 1393 1390 1388 1385
1445 1443 1439 1435 1433 1431 1429 1426 1423 1419 1415 1410 1406 1400 1393 1389 1383 1383 1380 1379 1379 1378 1383 1387 1391 1394 1396 1398 1398 1397 1396 1394 1393 1391 1389 1386 1384 1382
1440 1437 1433 1430 1428 1426 1423 1420 1417 1413 1409 1404 1400 1396 1389 1384 1379 1377 1375 1374 1375 1379 1381 1384 1387 1389 1392 1393 1393 1392 1392 1390 1389 1388 1385 1382 1381 1380
1436 1433 1430 1427 1424 1422 1419 1416 1411 1409 1405 1401 1395 1392 1387 1381 1376 1373 1373 1372 1374 1376 1378 1380 1383 1385 1387 1387 1390 1389 1388 1387 1385 1384 1382 1379 1377 1377
1431 1429 1426 1423 1421 1418 1415 1411 1407 1403 1400 1397 1392 1387 1383 1378 1372 1369 1367 1367 1370 1372 1374 1376 1378 1381 1382 1384 1385 1385 1385 1384 1383 1382 1380 1377 1376 1375
1425 1423 1421 1419 1416 1413 1410 1406 1403 1398 1395 1392 1388 1384 1380 1375 1370 1366 1364 1364 1366 1368 1370 1372 1374 1377 1379 1380 1381 1381 1381 1381 1380 1380 1378 1377 1376 1375
1420 1418 1416 1414 1411 1408 1403 1399 1397 1394 1390 1387 1384 1380 1377 1373 1369 1364 1360 1362 1364 1365 1367 1369 1371 1373 1375 1377 1377 1377 1377 1378 1377 1377 1377 1376 1376 1374
1415 1412 1410 1408 1405 1401 1398 1394 1391 1389 1385 1383 1379 1376 1373 1369 1366 1363 1358 1358 1361 1362 1363 1365 1368 1370 1372 1373 1374 1374 1375 1374 1374 1375 1375 1375 1374 1373